Location: Plainartige
(45.6866°N, 1.7993°E)
Time: 03:49:31
(UTC+00:00)

DIWATA 2B (PO-101) - Pass Details

Date: 11 July 2022
Orbit: 583 x 599 km, 98.0° (Epoch: 13 August)

Event Time Altitude Azimuth Distance (km) Brightness Sun altitude
Exits shadow 03:04:10 12° 247° (WSW) 1,833 ? -10.2°
Maximum altitude 03:05:43 14° 270° (W) 1,712 ? -10.0°
Drops below altitude 10° 03:07:52 10° 301° (WNW) 1,944 ? -9.7°
Sets 03:11:05 0° 328° (NNW) 2,851 ? -9.3°
